Location: ?????????
(41.1143°N, 22.7905°E)
Time: 16:44:55
(UTC+00:00)

Cosmos 1538 Rocket - Pass Details

Date: 13 December 2025
Orbit: 747 x 788 km, 74.0° (Epoch: 16 January)

Event Time Altitude Azimuth Distance (km) Brightness Sun altitude
Rises 16:41:43 0° 338° (NNW) 3,257 7.3 -18.3°
Reaches altitude 10° 16:44:06 10° 337° (NNW) 2,332 6.6 -18.8°
Maximum altitude 16:49:23 73° 253° (WSW) 820 4.2 -19.7°
Drops below altitude 10° 16:54:41 10° 170° (S) 2,336 6.5 -20.7°
Sets 16:57:04 0° 168° (SSE) 3,263 7.3 -21.2°
